EW7837 Weather Reports


time (UTC)temp
F
wind
direction
speed
knots
gust
knots
rain 1hr
in
rain 24hr
in
rain mn
in
humidity
%
barometer
mb
20260906104528 75 250 0.0 0.0 0.00 0.00 0.00 72 1007.9
20260906103016 75 250 0.0 0.0 0.00 0.00 0.00 69 1008.1
20260906101515 75 250 0.0 0.0 0.00 0.00 0.00 71 1007.8
20260906100012 76 250 0.0 0.0 0.00 0.00 0.00 70 1007.8
20260906094532 76 250 0.0 0.0 0.00 0.00 0.00 70 1007.8
20260906093133 76 250 0.0 0.0 0.00 0.00 0.00 70 1007.8
20260906091540 76 250 0.0 0.0 0.00 0.00 0.00 69 1008.1
20260906090038 76 250 0.0 0.0 0.00 0.00 0.00 68 1008.3
20260906084535 76 250 0.0 0.0 0.00 0.00 0.00 67 1008.4
20260906083044 76 250 0.0 0.0 0.00 0.00 0.00 66 1008.0
20260906081537 76 250 0.0 0.0 0.00 0.00 0.00 65 1008.2
20260906080039 76 250 0.0 0.0 0.00 0.00 0.00 65 1008.4
20260906074559 76 250 0.0 0.0 0.00 0.00 0.00 63 1008.4
20260906073058 76 250 0.0 0.0 0.00 0.00 0.00 61 1008.9
20260906071556 77 250 0.0 0.0 0.00 0.00 0.00 59 1008.9
20260906070056 77 250 0.0 0.0 0.00 0.00 0.00 56 1008.6
20260906064555 77 250 0.0 0.0 0.00 0.00 0.00 55 1008.4
20260906063055 76 250 0.0 0.0 0.00 0.00 0.00 56 1008.4
20260906061552 77 250 0.0 0.0 0.00 0.00 0.00 54 1008.5
20260906060052 77 250 0.0 0.0 0.00 0.00 0.00 52 1008.4
20260906054551 77 250 0.0 0.0 0.00 0.00 0.00 52 1008.7
20260906053051 77 250 0.0 0.0 0.00 0.00 0.00 51 1008.9
20260906051558 77 250 0.0 0.0 0.00 0.00 0.00 52 1008.9
20260906050049 77 250 0.0 0.0 0.00 0.00 0.00 51 1008.9
20260906044549 78 250 0.0 0.0 0.00 0.00 0.00 53 1008.4
20260906043042 78 250 0.0 0.0 0.00 0.00 0.00 54 1008.4
20260906041509 79 250 0.0 0.0 0.00 0.00 0.00 56 1008.4
20260906040015 80 250 0.0 0.0 0.00 0.00 0.00 62 1008.3
20260906034533 80 250 0.0 0.0 0.00 0.00 0.00 64 1008.3
20260906033041 81 250 0.0 0.0 0.00 0.00 0.00 65 1008.1
20260906031535 82 250 0.0 0.0 0.00 0.00 0.00 63 1008.2
20260906030023 82 250 0.0 0.0 0.00 0.00 0.00 61 1008.0
20260906024539 82 250 0.0 0.0 0.00 0.00 0.00 60 1008.0
20260906023023 83 250 0.0 0.0 0.00 0.00 0.00 58 1007.7
20260906021518 83 250 0.0 0.0 0.00 0.00 0.00 56 1007.7
20260906020016 84 250 0.0 0.0 0.00 0.00 0.00 53 1007.6
20260906014524 85 250 0.0 0.0 0.00 0.00 0.00 49 1007.8
20260906013034 87 250 0.0 0.0 0.00 0.00 0.00 41 1007.9
20260906011511 89 250 0.0 0.0 0.00 0.00 0.00 35 1007.9
20260906010010 89 250 0.0 0.0 0.00 0.00 0.00 33 1007.8
20260906004509 89 250 0.0 0.0 0.00 0.00 0.00 33 1008.1
20260906003010 88 246 0.0 0.0 0.00 0.00 0.00 32 1008.1
20260906001541 88 250 0.0 0.0 0.00 0.00 0.00 35 1008.1
20260906000042 88 250 0.0 0.0 0.00 0.00 0.00 39 1007.8
20260905234527 90 250 0.0 0.0 0.00 0.00 0.00 42 1007.9
20260905233027 89 267 0.0 0.0 0.00 0.00 0.00 44 1007.9
20260905231527 90 257 0.0 0.0 0.00 0.00 0.00 42 1007.9
20260905230026 90 257 0.0 0.0 0.00 0.00 0.00 41 1007.9
20260905224505 90 254 0.0 0.0 0.00 0.00 0.00 38 1008.3
20260905223003 91 258 0.0 0.0 0.00 0.00 0.00 37 1008.4
20260905221616 91 262 0.0 0.0 0.00 0.00 0.00 35 1008.5
20260905220059 89 265 0.0 0.0 0.00 0.00 0.00 35 1008.4
20260905214601 89 240 0.0 0.0 0.00 0.00 0.00 37 1008.6
20260905213105 90 259 0.0 0.0 0.00 0.00 0.00 39 1008.5
20260905211537 91 271 0.0 0.0 0.00 0.00 0.00 34 1009.0
20260905210033 90 248 0.0 0.0 0.00 0.00 0.00 33 1009.0
20260905204528 91 221 0.0 0.0 0.00 0.00 0.00 37 1009.0
20260905203023 91 267 0.0 0.0 0.00 0.00 0.00 38 1009.2
20260905201522 91 241 0.0 0.0 0.00 0.00 0.00 37 1009.0
20260905200020 90 254 0.0 0.0 0.00 0.00 0.00 37 1009.0
20260905194514 90 266 0.0 0.0 0.00 0.00 0.00 37 1009.6
20260905193011 89 232 0.0 0.0 0.00 0.00 0.00 45 1009.8
20260905191507 88 232 0.0 0.0 0.00 0.00 0.00 46 1010.0
20260905190005 87 232 0.0 0.0 0.00 0.00 0.00 48 1010.1
20260905184501 86 232 0.0 0.0 0.00 0.00 0.00 49 1010.0
20260905183027 85 232 0.0 0.0 0.00 0.00 0.00 54 1010.5
20260905181526 84 232 0.0 0.0 0.00 0.00 0.00 57 1010.6
20260905180010 83 232 0.0 0.0 0.00 0.00 0.00 59 1010.6
20260905174517 82 232 0.0 0.0 0.00 0.00 0.00 58 1010.5
20260905173015 82 232 0.0 0.0 0.00 0.00 0.00 55 1010.1
20260905171513 80 232 0.0 0.0 0.00 0.00 0.00 53 1010.4
20260905170037 78 232 0.0 0.0 0.00 0.00 0.00 55 1010.3
20260905164534 77 232 0.0 0.0 0.00 0.00 0.00 61 1010.4
20260905163008 76 232 0.0 0.0 0.00 0.00 0.00 63 1010.0
20260905161605 76 232 0.0 0.0 0.00 0.00 0.00 67 1010.3
20260905160050 73 232 0.0 0.0 0.00 0.00 0.00 71 1010.5
20260905154552 71 232 0.0 0.0 0.00 0.00 0.00 76 1010.5
20260905153044 69 232 0.0 0.0 0.00 0.00 0.00 79 1010.4
20260905151542 68 232 0.0 0.0 0.00 0.00 0.00 79 1010.0
20260905150040 66 232 0.0 0.0 0.00 0.00 0.00 83 1010.2
20260905144538 63 232 0.0 0.0 0.00 0.00 0.00 89 1010.1
20260905143036 61 232 0.0 0.0 0.00 0.00 0.00 91 1010.1
20260905141535 61 232 0.0 0.0 0.00 0.00 0.00 91 1010.1
20260905140029 60 232 0.0 0.0 0.00 0.00 0.00 90 1009.6
20260905134529 60 232 0.0 0.0 0.00 0.00 0.00 90 1009.8
20260905133025 61 232 0.0 0.0 0.00 0.00 0.00 90 1009.6
20260905131528 60 232 0.0 0.0 0.00 0.00 0.00 91 1009.4
20260905130025 61 232 0.0 0.0 0.00 0.00 0.00 90 1009.4
20260905124524 60 232 0.0 0.0 0.00 0.00 0.00 91 1009.3
20260905123022 60 232 0.0 0.0 0.00 0.00 0.00 90 1009.1
20260905121526 60 232 0.0 0.0 0.00 0.00 0.00 90 1009.1
20260905120018 60 232 0.0 0.0 0.00 0.00 0.00 90 1009.1
20260905114518 60 232 0.0 0.0 0.00 0.00 0.00 90 1009.1
20260905113020 60 233 0.0 0.0 0.00 0.00 0.00 90 1009.4
20260905111520 60 232 0.0 0.0 0.00 0.00 0.00 90 1009.1
20260905110013 60 232 0.0 0.0 0.00 0.00 0.00 89 1009.5